TimeEST,TemperatureF,Dew PointF,Humidity,Sea Level PressureIn,VisibilityMPH,Wind Direction,Wind SpeedMPH,Gust SpeedMPH,PrecipitationIn,Events,Conditions,WindDirDegrees,DateUTC
12:15 AM,26.6,24.8,93,29.69,1.2,NNE,6.9,-,N/A,,Overcast,30,2014-02-15 05:15:00
12:35 AM,26.6,24.8,93,29.69,1.8,NNE,8.1,-,0.01,,Overcast,20,2014-02-15 05:35:00
12:55 AM,26.6,24.8,93,29.68,2.0,NNE,8.1,-,0.01,,Overcast,30,2014-02-15 05:55:00
1:15 AM,26.6,24.8,93,29.68,1.8,NE,6.9,-,N/A,,Overcast,40,2014-02-15 06:15:00
1:35 AM,26.6,24.8,93,29.67,1.5,NNE,6.9,-,N/A,,Overcast,20,2014-02-15 06:35:00
1:55 AM,26.6,23.0,86,29.67,2.5,North,9.2,-,N/A,,Overcast,10,2014-02-15 06:55:00
2:15 AM,24.8,23.0,93,29.66,3.0,NNE,10.4,-,N/A,,Overcast,30,2014-02-15 07:15:00
2:35 AM,24.8,21.2,86,29.67,2.5,North,8.1,-,N/A,,Overcast,10,2014-02-15 07:35:00
2:55 AM,24.8,21.2,86,29.66,3.0,North,5.8,-,N/A,,Overcast,10,2014-02-15 07:55:00
3:15 AM,24.8,21.2,86,29.67,3.0,North,5.8,-,N/A,,Overcast,360,2014-02-15 08:15:00
3:35 AM,24.8,21.2,86,29.66,2.5,North,4.6,-,N/A,,Overcast,350,2014-02-15 08:35:00
3:55 AM,24.8,21.2,86,29.66,2.5,NNW,5.8,-,0.01,,Overcast,340,2014-02-15 08:55:00
4:15 AM,24.8,21.2,86,29.66,2.5,NNW,6.9,-,N/A,,Overcast,340,2014-02-15 09:15:00
4:35 AM,24.8,21.2,86,29.67,5.0,North,6.9,-,0.01,,Overcast,350,2014-02-15 09:35:00
4:55 AM,24.8,21.2,86,29.67,3.0,NNW,8.1,-,0.01,,Mostly Cloudy,340,2014-02-15 09:55:00
5:15 AM,24.8,19.4,80,29.69,2.0,NNW,9.2,-,N/A,,Overcast,340,2014-02-15 10:15:00
5:35 AM,24.8,19.4,80,29.70,2.5,NNW,6.9,-,N/A,,Overcast,330,2014-02-15 10:35:00
5:55 AM,23.0,19.4,86,29.71,2.0,NW,8.1,-,N/A,,Overcast,320,2014-02-15 10:55:00
6:15 AM,23.0,19.4,86,29.72,2.0,NNW,9.2,-,N/A,,Overcast,330,2014-02-15 11:15:00
6:35 AM,23.0,19.4,86,29.74,1.8,NW,9.2,-,N/A,,Overcast,320,2014-02-15 11:35:00
6:55 AM,23.0,19.4,86,29.75,2.5,NNW,10.4,-,N/A,,Overcast,330,2014-02-15 11:55:00
7:15 AM,21.2,19.4,93,29.77,1.5,NNW,9.2,-,0.01,,Overcast,330,2014-02-15 12:15:00
7:35 AM,21.2,17.6,86,29.78,1.0,NNW,9.2,-,0.01,,Overcast,330,2014-02-15 12:35:00
7:55 AM,21.2,17.6,86,29.79,1.0,NW,6.9,-,0.01,,Overcast,320,2014-02-15 12:55:00
8:15 AM,21.2,17.6,86,29.82,1.2,WNW,5.8,-,N/A,,Overcast,300,2014-02-15 13:15:00
8:35 AM,21.2,17.6,86,29.83,1.5,NW,9.2,17.3,N/A,,Overcast,320,2014-02-15 13:35:00
8:55 AM,21.2,17.6,86,29.84,1.5,NW,6.9,-,N/A,,Overcast,310,2014-02-15 13:55:00
9:15 AM,23.0,17.6,80,29.85,7.0,NW,8.1,16.1,N/A,,Mostly Cloudy,320,2014-02-15 14:15:00
9:35 AM,24.8,17.6,74,29.86,8.0,NW,9.2,-,N/A,,Mostly Cloudy,310,2014-02-15 14:35:00
9:55 AM,24.8,15.8,69,29.87,9.0,NW,6.9,-,N/A,,Mostly Cloudy,320,2014-02-15 14:55:00
10:15 AM,24.8,15.8,69,29.88,10.0,WNW,11.5,19.6,N/A,,Overcast,300,2014-02-15 15:15:00
10:35 AM,24.8,15.8,69,29.88,10.0,NW,12.7,19.6,N/A,,Mostly Cloudy,310,2014-02-15 15:35:00
10:55 AM,24.8,15.8,69,29.89,10.0,WNW,11.5,17.3,N/A,,Overcast,300,2014-02-15 15:55:00
11:15 AM,24.8,17.6,74,29.89,10.0,NW,15.0,19.6,N/A,,Overcast,310,2014-02-15 16:15:00
11:35 AM,24.8,15.8,69,29.89,10.0,NW,10.4,20.7,N/A,,Overcast,320,2014-02-15 16:35:00
11:55 AM,24.8,17.6,74,29.90,7.0,NW,10.4,17.3,N/A,,Overcast,320,2014-02-15 16:55:00
12:15 PM,24.8,17.6,74,29.89,4.0,NNW,8.1,-,N/A,,Overcast,330,2014-02-15 17:15:00
12:35 PM,24.8,17.6,74,29.89,4.0,NNW,9.2,-,N/A,,Overcast,330,2014-02-15 17:35:00
12:55 PM,24.8,17.6,74,29.89,4.0,NNW,6.9,-,N/A,,Overcast,330,2014-02-15 17:55:00
1:15 PM,26.6,15.8,64,29.90,9.0,NW,9.2,-,N/A,,Mostly Cloudy,310,2014-02-15 18:15:00
1:35 PM,26.6,15.8,64,29.90,10.0,WNW,9.2,18.4,N/A,,Overcast,290,2014-02-15 18:35:00
1:55 PM,26.6,15.8,64,29.90,9.0,West,11.5,-,N/A,,Overcast,270,2014-02-15 18:55:00
2:15 PM,26.6,14.0,59,29.90,10.0,WNW,8.1,17.3,N/A,,Overcast,300,2014-02-15 19:15:00
2:35 PM,26.6,14.0,59,29.91,10.0,West,13.8,20.7,N/A,,Overcast,260,2014-02-15 19:35:00
2:55 PM,28.4,12.2,51,29.91,10.0,West,8.1,17.3,N/A,,Overcast,280,2014-02-15 19:55:00
3:15 PM,28.4,14.0,55,29.92,10.0,West,11.5,-,N/A,,Overcast,260,2014-02-15 20:15:00
3:35 PM,26.6,12.2,55,29.93,10.0,West,11.5,18.4,N/A,,Overcast,260,2014-02-15 20:35:00
3:55 PM,28.4,14.0,55,29.93,10.0,West,11.5,-,N/A,,Mostly Cloudy,270,2014-02-15 20:55:00
4:15 PM,26.6,12.2,55,29.93,10.0,West,6.9,16.1,N/A,,Mostly Cloudy,260,2014-02-15 21:15:00
4:35 PM,26.6,10.4,51,29.94,10.0,West,10.4,18.4,N/A,,Mostly Cloudy,270,2014-02-15 21:35:00
4:55 PM,26.6,10.4,51,29.95,10.0,West,10.4,19.6,N/A,,Scattered Clouds,270,2014-02-15 21:55:00
5:15 PM,26.6,8.6,47,29.96,10.0,West,8.1,16.1,N/A,,Partly Cloudy,280,2014-02-15 22:15:00
5:35 PM,26.6,8.6,47,29.97,10.0,West,8.1,17.3,N/A,,Clear,270,2014-02-15 22:35:00
5:55 PM,24.8,6.8,46,29.98,10.0,WNW,6.9,-,N/A,,Clear,290,2014-02-15 22:55:00
6:15 PM,24.8,5.0,43,29.99,10.0,WNW,6.9,-,N/A,,Clear,300,2014-02-15 23:15:00
6:35 PM,23.0,5.0,46,30.00,10.0,WNW,8.1,-,N/A,,Clear,300,2014-02-15 23:35:00
6:55 PM,21.2,3.2,46,30.01,10.0,WNW,5.8,-,N/A,,Clear,290,2014-02-15 23:55:00
7:15 PM,21.2,3.2,46,30.01,10.0,WNW,5.8,-,N/A,,Clear,290,2014-02-16 00:15:00
7:35 PM,21.2,3.2,46,30.03,10.0,West,5.8,-,N/A,,Clear,270,2014-02-16 00:35:00
7:55 PM,19.4,5.0,54,30.04,10.0,West,6.9,-,N/A,,Clear,270,2014-02-16 00:55:00
8:15 PM,19.4,6.8,58,30.04,10.0,WSW,5.8,-,N/A,,Clear,250,2014-02-16 01:15:00
8:35 PM,19.4,6.8,58,30.05,10.0,West,4.6,-,N/A,,Clear,260,2014-02-16 01:35:00
8:55 PM,17.6,5.0,58,30.04,10.0,West,5.8,-,N/A,,Clear,260,2014-02-16 01:55:00
9:15 PM,17.6,5.0,58,30.04,10.0,West,5.8,-,N/A,,Clear,260,2014-02-16 02:15:00
9:35 PM,17.6,5.0,58,30.04,10.0,West,4.6,-,N/A,,Clear,260,2014-02-16 02:35:00
9:55 PM,15.8,3.2,58,30.04,10.0,West,5.8,-,N/A,,Clear,260,2014-02-16 02:55:00
10:15 PM,14.0,3.2,62,30.05,10.0,WSW,3.5,-,N/A,,Clear,250,2014-02-16 03:15:00
10:35 PM,12.2,3.2,67,30.05,10.0,Calm,Calm,-,N/A,,Clear,0,2014-02-16 03:35:00
10:55 PM,10.4,3.2,73,30.05,10.0,Calm,Calm,-,N/A,,Clear,0,2014-02-16 03:55:00
11:15 PM,10.4,3.2,73,30.04,10.0,Calm,Calm,-,N/A,,Clear,0,2014-02-16 04:15:00
11:35 PM,8.6,1.4,73,30.04,10.0,Calm,Calm,-,N/A,,Clear,0,2014-02-16 04:35:00
11:55 PM,6.8,1.4,79,30.04,10.0,Calm,Calm,-,N/A,,Clear,0,2014-02-16 04:55:00